Time,TemperatureF,DewpointF,PressureIn,WindDirection,WindDirectionDegrees,WindSpeedMPH,WindSpeedGustMPH,Humidity,HourlyPrecipIn,Conditions,Clouds,dailyrainin,SoftwareType,DateUTC
2013-06-03 00:22:00,71.6,68.0,29.72,West,270,10.4,-999.9,88,-99.99,,,-99.99,,2013-06-03 04:22:00,
2013-06-03 00:24:00,71.6,68.0,29.72,West,270,10.4,-999.9,88,-99.99,,,-99.99,,2013-06-03 04:24:00,
2013-06-03 00:26:00,71.6,68.0,29.72,West,270,10.4,-999.9,88,-99.99,,,-99.99,,2013-06-03 04:26:00,
2013-06-03 00:28:00,71.6,68.0,29.72,West,270,10.4,-999.9,88,-99.99,,,-99.99,,2013-06-03 04:28:00,
2013-06-03 00:34:00,71.6,68.0,29.71,West,263,11.5,-999.9,88,-99.99,,,-99.99,,2013-06-03 04:34:00,
2013-06-03 00:40:00,71.6,68.0,29.71,West,263,11.5,-999.9,88,-99.99,,,-99.99,,2013-06-03 04:40:00,
2013-06-03 00:46:00,71.6,68.0,29.71,SSW,204,3.5,-999.9,88,-99.99,,,-99.99,,2013-06-03 04:46:00,
2013-06-03 01:02:00,71.6,68.0,29.70,SSW,198,3.5,-999.9,88,-99.99,,,-99.99,,2013-06-03 05:02:00,
2013-06-03 01:08:00,71.6,68.0,29.70,SSW,198,3.5,-999.9,88,-99.99,,,-99.99,,2013-06-03 05:08:00,
2013-06-03 01:42:00,73.4,68.0,29.71,SSW,211,8.1,-999.9,83,-99.99,,,-99.99,,2013-06-03 05:42:00,
2013-06-03 01:48:00,73.4,68.0,29.71,SSW,211,8.1,-999.9,83,-99.99,,,-99.99,,2013-06-03 05:48:00,
2013-06-03 02:12:00,73.4,68.0,29.71,SSW,213,9.2,-999.9,83,-99.99,,,-99.99,,2013-06-03 06:12:00,
2013-06-03 02:18:00,73.4,68.0,29.71,SSW,213,9.2,-999.9,83,-99.99,,,-99.99,,2013-06-03 06:18:00,
2013-06-03 02:24:00,73.4,68.0,29.72,SSW,208,9.2,-999.9,83,-99.99,,,-99.99,,2013-06-03 06:24:00,
2013-06-03 02:30:00,73.4,68.0,29.72,SSW,208,9.2,-999.9,83,-99.99,,,-99.99,,2013-06-03 06:30:00,
2013-06-03 02:36:00,73.4,68.0,29.72,SW,215,9.2,-999.9,83,-99.99,,,-99.99,,2013-06-03 06:36:00,
2013-06-03 03:02:00,71.6,66.2,29.72,SW,225,13.8,-999.9,83,-99.99,,,-99.99,,2013-06-03 07:02:00,
2013-06-03 03:08:00,71.6,66.2,29.72,SW,225,13.8,-999.9,83,-99.99,,,-99.99,,2013-06-03 07:08:00,
2013-06-03 03:42:00,71.6,68.0,29.71,SW,221,11.5,-999.9,88,-99.99,,,-99.99,,2013-06-03 07:42:00,
2013-06-03 03:48:00,71.6,68.0,29.71,SW,221,11.5,-999.9,88,-99.99,,,-99.99,,2013-06-03 07:48:00,
2013-06-03 03:54:00,71.6,68.0,29.71,SW,230,5.8,-999.9,88,-99.99,,,-99.99,,2013-06-03 07:54:00,
2013-06-03 04:00:00,71.6,68.0,29.71,SW,230,5.8,-999.9,88,-99.99,,,-99.99,,2013-06-03 08:00:00,
2013-06-03 04:32:00,71.6,68.0,29.71,SW,227,5.8,-999.9,88,-99.99,,,-99.99,,2013-06-03 08:32:00,
2013-06-03 04:38:00,71.6,68.0,29.71,SW,227,5.8,-999.9,88,-99.99,,,-99.99,,2013-06-03 08:38:00,
2013-06-03 04:52:00,71.6,68.0,29.70,SW,219,3.5,-999.9,88,-99.99,,,-99.99,,2013-06-03 08:52:00,
2013-06-03 04:58:00,71.6,68.0,29.70,SW,219,3.5,-999.9,88,-99.99,,,-99.99,,2013-06-03 08:58:00,
2013-06-03 05:12:00,71.6,69.8,29.69,North,0,0.0,-999.9,94,-99.99,,,-99.99,,2013-06-03 09:12:00,
2013-06-03 05:18:00,71.6,69.8,29.69,North,0,0.0,-999.9,94,-99.99,,,-99.99,,2013-06-03 09:18:00,
2013-06-03 05:42:00,69.8,68.0,29.70,SSW,212,0.0,-999.9,94,-99.99,,,-99.99,,2013-06-03 09:42:00,
2013-06-03 05:48:00,69.8,68.0,29.70,SSW,212,0.0,-999.9,94,-99.99,,,-99.99,,2013-06-03 09:48:00,
2013-06-03 06:02:00,71.6,69.8,29.71,South,188,10.4,-999.9,94,-99.99,,,-99.99,,2013-06-03 10:02:00,
2013-06-03 06:08:00,71.6,69.8,29.71,South,188,10.4,-999.9,94,-99.99,,,-99.99,,2013-06-03 10:08:00,
2013-06-03 06:14:00,71.6,69.8,29.70,SSW,197,6.9,-999.9,94,-99.99,,,-99.99,,2013-06-03 10:14:00,
2013-06-03 06:20:00,71.6,69.8,29.70,SSW,197,6.9,-999.9,94,-99.99,,,-99.99,,2013-06-03 10:20:00,
2013-06-03 07:02:00,68.0,66.2,29.72,South,176,10.4,-999.9,94,-99.99,,,-99.99,,2013-06-03 11:02:00,
2013-06-03 07:08:00,68.0,66.2,29.72,South,176,10.4,-999.9,94,-99.99,,,-99.99,,2013-06-03 11:08:00,
2013-06-03 07:22:00,69.8,68.0,29.72,SSW,198,13.8,-999.9,94,-99.99,,,-99.99,,2013-06-03 11:22:00,
2013-06-03 07:28:00,69.8,68.0,29.72,SSW,198,13.8,-999.9,94,-99.99,,,-99.99,,2013-06-03 11:28:00,
2013-06-03 07:34:00,69.8,68.0,29.72,SSW,196,9.2,-999.9,94,-99.99,,,-99.99,,2013-06-03 11:34:00,
2013-06-03 07:40:00,69.8,68.0,29.72,SSW,196,9.2,-999.9,94,-99.99,,,-99.99,,2013-06-03 11:40:00,
2013-06-03 07:52:00,69.8,68.0,29.71,SSW,200,4.6,-999.9,94,-99.99,,,-99.99,,2013-06-03 11:52:00,
2013-06-03 07:58:00,69.8,68.0,29.71,SSW,200,4.6,-999.9,94,-99.99,,,-99.99,,2013-06-03 11:58:00,
2013-06-03 08:12:00,69.8,68.0,29.72,SSW,198,8.1,-999.9,94,-99.99,,,-99.99,,2013-06-03 12:12:00,
2013-06-03 08:18:00,69.8,68.0,29.72,SSW,198,8.1,-999.9,94,-99.99,,,-99.99,,2013-06-03 12:18:00,
2013-06-03 08:32:00,69.8,68.0,29.72,SSW,206,6.9,-999.9,94,-99.99,,,-99.99,,2013-06-03 12:32:00,
2013-06-03 08:38:00,69.8,68.0,29.72,SSW,206,6.9,-999.9,94,-99.99,,,-99.99,,2013-06-03 12:38:00,
2013-06-03 08:52:00,69.8,68.0,29.72,SSW,195,5.8,-999.9,94,-99.99,,,-99.99,,2013-06-03 12:52:00,
2013-06-03 08:58:00,69.8,68.0,29.72,SSW,195,5.8,-999.9,94,-99.99,,,-99.99,,2013-06-03 12:58:00,
2013-06-03 09:12:00,69.8,68.0,29.73,South,191,10.4,-999.9,94,-99.99,,,-99.99,,2013-06-03 13:12:00,
2013-06-03 09:18:00,69.8,68.0,29.73,South,191,10.4,-999.9,94,-99.99,,,-99.99,,2013-06-03 13:18:00,
2013-06-03 09:52:00,69.8,69.8,29.73,SW,233,1.2,-999.9,100,-99.99,,,-99.99,,2013-06-03 13:52:00,
2013-06-03 09:58:00,69.8,69.8,29.73,SW,233,1.2,-999.9,100,-99.99,,,-99.99,,2013-06-03 13:58:00,
2013-06-03 10:32:00,71.6,69.8,29.72,North,0,0.0,-999.9,94,-99.99,,,-99.99,,2013-06-03 14:32:00,
2013-06-03 10:38:00,71.6,69.8,29.72,North,0,0.0,-999.9,94,-99.99,,,-99.99,,2013-06-03 14:38:00,
2013-06-03 10:44:00,71.6,69.8,29.71,NNE,23,9.2,-999.9,94,-99.99,,,-99.99,,2013-06-03 14:44:00,
2013-06-03 10:50:00,71.6,69.8,29.71,NNE,23,9.2,-999.9,94,-99.99,,,-99.99,,2013-06-03 14:50:00,
2013-06-03 10:56:00,73.4,69.8,29.72,NNE,12,6.9,-999.9,88,-99.99,,,-99.99,,2013-06-03 14:56:00,
2013-06-03 11:02:00,73.4,69.8,29.72,North,6,5.8,-999.9,88,-99.99,,,-99.99,,2013-06-03 15:02:00,
2013-06-03 11:08:00,73.4,69.8,29.72,North,6,5.8,-999.9,88,-99.99,,,-99.99,,2013-06-03 15:08:00,
2013-06-03 11:14:00,71.6,68.0,29.73,NE,53,6.9,-999.9,88,-99.99,,,-99.99,,2013-06-03 15:14:00,
2013-06-03 11:20:00,71.6,68.0,29.73,NE,53,6.9,-999.9,88,-99.99,,,-99.99,,2013-06-03 15:20:00,
2013-06-03 11:26:00,71.6,68.0,29.73,NE,35,1.2,-999.9,88,-99.99,,,-99.99,,2013-06-03 15:26:00,
2013-06-03 11:32:00,71.6,68.0,29.73,NE,37,8.1,-999.9,88,-99.99,,,-99.99,,2013-06-03 15:32:00,
2013-06-03 11:38:00,71.6,68.0,29.73,NE,37,8.1,-999.9,88,-99.99,,,-99.99,,2013-06-03 15:38:00,
2013-06-03 11:52:00,73.4,68.0,29.73,NE,56,8.1,-999.9,83,-99.99,,,-99.99,,2013-06-03 15:52:00,
2013-06-03 11:58:00,73.4,68.0,29.73,NE,56,8.1,-999.9,83,-99.99,,,-99.99,,2013-06-03 15:58:00,
2013-06-03 12:04:00,73.4,68.0,29.73,NE,42,6.9,-999.9,83,-99.99,,,-99.99,,2013-06-03 16:04:00,
2013-06-03 12:10:00,73.4,68.0,29.73,NE,42,6.9,-999.9,83,-99.99,,,-99.99,,2013-06-03 16:10:00,
2013-06-03 12:16:00,73.4,68.0,29.73,East,83,3.5,-999.9,83,-99.99,,,-99.99,,2013-06-03 16:16:00,
2013-06-03 12:32:00,73.4,68.0,29.72,ENE,66,8.1,-999.9,83,-99.99,,,-99.99,,2013-06-03 16:32:00,
2013-06-03 12:38:00,73.4,68.0,29.72,ENE,66,8.1,-999.9,83,-99.99,,,-99.99,,2013-06-03 16:38:00,
2013-06-03 12:44:00,73.4,68.0,29.72,ENE,63,5.8,-999.9,83,-99.99,,,-99.99,,2013-06-03 16:44:00,
2013-06-03 12:50:00,73.4,68.0,29.72,ENE,63,5.8,-999.9,83,-99.99,,,-99.99,,2013-06-03 16:50:00,
2013-06-03 13:22:00,75.2,66.2,29.70,NE,53,8.1,-999.9,73,-99.99,,,-99.99,,2013-06-03 17:22:00,
2013-06-03 13:28:00,75.2,66.2,29.70,NE,53,8.1,-999.9,73,-99.99,,,-99.99,,2013-06-03 17:28:00,
2013-06-03 13:34:00,75.2,66.2,29.70,East,91,4.6,-999.9,73,-99.99,,,-99.99,,2013-06-03 17:34:00,
2013-06-03 13:40:00,75.2,66.2,29.70,East,91,4.6,-999.9,73,-99.99,,,-99.99,,2013-06-03 17:40:00,
2013-06-03 13:46:00,75.2,64.4,29.70,ENE,59,6.9,-999.9,69,-99.99,,,-99.99,,2013-06-03 17:46:00,
2013-06-03 13:52:00,77.0,66.2,29.70,ENE,70,3.5,-999.9,69,-99.99,,,-99.99,,2013-06-03 17:52:00,
2013-06-03 13:58:00,77.0,66.2,29.70,ENE,70,3.5,-999.9,69,-99.99,,,-99.99,,2013-06-03 17:58:00,
2013-06-03 14:04:00,77.0,64.4,29.70,East,85,2.3,-999.9,65,-99.99,,,-99.99,,2013-06-03 18:04:00,
2013-06-03 14:10:00,77.0,64.4,29.70,East,85,2.3,-999.9,65,-99.99,,,-99.99,,2013-06-03 18:10:00,
2013-06-03 14:16:00,77.0,64.4,29.70,SE,124,6.9,-999.9,65,-99.99,,,-99.99,,2013-06-03 18:16:00,
2013-06-03 14:22:00,77.0,64.4,29.70,ESE,120,8.1,-999.9,65,-99.99,,,-99.99,,2013-06-03 18:22:00,
2013-06-03 14:28:00,77.0,64.4,29.70,ESE,120,8.1,-999.9,65,-99.99,,,-99.99,,2013-06-03 18:28:00,
2013-06-03 14:52:00,78.8,64.4,29.70,SE,132,6.9,-999.9,61,-99.99,,,-99.99,,2013-06-03 18:52:00,
2013-06-03 14:58:00,78.8,64.4,29.70,SE,132,6.9,-999.9,61,-99.99,,,-99.99,,2013-06-03 18:58:00,
2013-06-03 15:12:00,78.8,64.4,29.69,SE,135,4.6,-999.9,61,-99.99,,,-99.99,,2013-06-03 19:12:00,
2013-06-03 15:18:00,78.8,64.4,29.69,SE,135,4.6,-999.9,61,-99.99,,,-99.99,,2013-06-03 19:18:00,
2013-06-03 15:24:00,78.8,64.4,29.69,SE,130,5.8,-999.9,61,-99.99,,,-99.99,,2013-06-03 19:24:00,
2013-06-03 15:30:00,78.8,64.4,29.69,SE,130,5.8,-999.9,61,-99.99,,,-99.99,,2013-06-03 19:30:00,
2013-06-03 15:36:00,78.8,64.4,29.69,ESE,118,6.9,-999.9,61,-99.99,,,-99.99,,2013-06-03 19:36:00,
2013-06-03 15:42:00,78.8,64.4,29.69,ESE,122,3.5,-999.9,61,-99.99,,,-99.99,,2013-06-03 19:42:00,
2013-06-03 15:48:00,78.8,64.4,29.69,ESE,122,3.5,-999.9,61,-99.99,,,-99.99,,2013-06-03 19:48:00,
2013-06-03 15:54:00,78.8,62.6,29.68,SE,134,4.6,-999.9,57,-99.99,,,-99.99,,2013-06-03 19:54:00,
2013-06-03 16:00:00,78.8,62.6,29.68,SE,134,4.6,-999.9,57,-99.99,,,-99.99,,2013-06-03 20:00:00,
2013-06-03 16:12:00,78.8,68.0,29.68,South,174,5.8,-999.9,69,-99.99,,,-99.99,,2013-06-03 20:12:00,
2013-06-03 16:18:00,78.8,68.0,29.68,South,174,5.8,-999.9,69,-99.99,,,-99.99,,2013-06-03 20:18:00,
2013-06-03 16:42:00,77.0,68.0,29.67,SE,143,5.8,-999.9,74,-99.99,,,-99.99,,2013-06-03 20:42:00,
2013-06-03 16:48:00,77.0,68.0,29.67,SE,143,5.8,-999.9,74,-99.99,,,-99.99,,2013-06-03 20:48:00,
2013-06-03 16:54:00,77.0,68.0,29.67,SE,142,3.5,-999.9,74,-99.99,,,-99.99,,2013-06-03 20:54:00,
2013-06-03 17:00:00,77.0,68.0,29.67,SE,142,3.5,-999.9,74,-99.99,,,-99.99,,2013-06-03 21:00:00,
2013-06-03 17:06:00,77.0,68.0,29.68,ESE,115,4.6,-999.9,74,-99.99,,,-99.99,,2013-06-03 21:06:00,
2013-06-03 18:02:00,73.4,69.8,29.68,SW,221,5.8,-999.9,88,-99.99,,,-99.99,,2013-06-03 22:02:00,
2013-06-03 18:08:00,73.4,69.8,29.68,SW,221,5.8,-999.9,88,-99.99,,,-99.99,,2013-06-03 22:08:00,
2013-06-03 18:22:00,69.8,68.0,29.69,SSW,208,4.6,-999.9,94,-99.99,,,-99.99,,2013-06-03 22:22:00,
2013-06-03 18:28:00,69.8,68.0,29.69,SSW,208,4.6,-999.9,94,-99.99,,,-99.99,,2013-06-03 22:28:00,
2013-06-03 18:42:00,71.6,69.8,29.70,SW,216,3.5,-999.9,94,-99.99,,,-99.99,,2013-06-03 22:42:00,
2013-06-03 18:48:00,71.6,69.8,29.70,SW,216,3.5,-999.9,94,-99.99,,,-99.99,,2013-06-03 22:48:00,
2013-06-03 19:12:00,73.4,69.8,29.70,WSW,237,3.5,-999.9,88,-99.99,,,-99.99,,2013-06-03 23:12:00,
2013-06-03 19:18:00,73.4,69.8,29.70,WSW,237,3.5,-999.9,88,-99.99,,,-99.99,,2013-06-03 23:18:00,
2013-06-03 19:24:00,73.4,69.8,29.70,SW,222,4.6,-999.9,88,-99.99,,,-99.99,,2013-06-03 23:24:00,
2013-06-03 19:30:00,73.4,69.8,29.70,SW,222,4.6,-999.9,88,-99.99,,,-99.99,,2013-06-03 23:30:00,
2013-06-03 19:42:00,71.6,68.0,29.70,WSW,239,1.2,-999.9,88,-99.99,,,-99.99,,2013-06-03 23:42:00,
2013-06-03 19:48:00,71.6,68.0,29.70,WSW,239,1.2,-999.9,88,-99.99,,,-99.99,,2013-06-03 23:48:00,
2013-06-03 21:12:00,71.6,68.0,29.72,North,0,0.0,-999.9,88,-99.99,,,-99.99,,2013-06-04 01:12:00,
2013-06-03 21:18:00,71.6,68.0,29.72,North,0,0.0,-999.9,88,-99.99,,,-99.99,,2013-06-04 01:18:00,
2013-06-03 21:24:00,71.6,68.0,29.72,North,0,0.0,-999.9,88,-99.99,,,-99.99,,2013-06-04 01:24:00,
2013-06-03 21:30:00,71.6,68.0,29.72,North,0,0.0,-999.9,88,-99.99,,,-99.99,,2013-06-04 01:30:00,
2013-06-03 21:36:00,71.6,68.0,29.72,West,264,1.2,-999.9,88,-99.99,,,-99.99,,2013-06-04 01:36:00,
2013-06-03 21:42:00,71.6,66.2,29.72,NW,313,0.0,-999.9,83,-99.99,,,-99.99,,2013-06-04 01:42:00,
2013-06-03 21:48:00,71.6,66.2,29.72,NW,313,0.0,-999.9,83,-99.99,,,-99.99,,2013-06-04 01:48:00,
2013-06-03 22:02:00,73.4,60.8,29.73,NNW,339,8.1,-999.9,65,-99.99,,,-99.99,,2013-06-04 02:02:00,
2013-06-03 22:08:00,73.4,60.8,29.73,NNW,339,8.1,-999.9,65,-99.99,,,-99.99,,2013-06-04 02:08:00,
2013-06-03 22:14:00,73.4,60.8,29.74,NNW,347,11.5,-999.9,65,-99.99,,,-99.99,,2013-06-04 02:14:00,
2013-06-03 22:20:00,73.4,60.8,29.74,NNW,347,11.5,-999.9,65,-99.99,,,-99.99,,2013-06-04 02:20:00,
2013-06-03 22:26:00,73.4,59.0,29.74,NNW,337,9.2,-999.9,61,-99.99,,,-99.99,,2013-06-04 02:26:00,
2013-06-03 22:32:00,73.4,59.0,29.75,NNW,341,15.0,-999.9,61,-99.99,,,-99.99,,2013-06-04 02:32:00,
2013-06-03 22:38:00,73.4,59.0,29.75,NNW,341,15.0,-999.9,61,-99.99,,,-99.99,,2013-06-04 02:38:00,
2013-06-03 22:44:00,73.4,59.0,29.74,NNW,342,11.5,-999.9,61,-99.99,,,-99.99,,2013-06-04 02:44:00,
2013-06-03 22:50:00,73.4,59.0,29.74,NNW,342,11.5,-999.9,61,-99.99,,,-99.99,,2013-06-04 02:50:00,
2013-06-03 22:56:00,71.6,57.2,29.75,NNW,331,13.8,-999.9,60,-99.99,,,-99.99,,2013-06-04 02:56:00,
2013-06-03 23:22:00,71.6,50.0,29.74,NNW,330,11.5,-999.9,46,-99.99,,,-99.99,,2013-06-04 03:22:00,
2013-06-03 23:28:00,71.6,50.0,29.74,NNW,330,11.5,-999.9,46,-99.99,,,-99.99,,2013-06-04 03:28:00,